sat.trackr.live / text

‹ back to catalog

STARLINK-37405

NORAD 68809 · 2026-089H

PAYLOAD ACTIVE UNKNOWN

§ Identity

Operator
Country
US
Launch date
2026-04-23
Launch site
AFWTR
Launch vehicle
Mass (kg)
RCS (m²)

Purposes: comms

External: N2YO · Heavens-Above · Gunter

§ Orbital elements

Epoch: 2026-09-18T20:22:57.606240Z

Period
93.91 min
Inclination
97.2852°
Eccentricity
0.0002275
Mean motion
15.33446106 rev/d
Perigee alt
464.0 km
Apogee alt
467.1 km
Semi-major
6,843.7 km
B*
3.3677e-4
RAAN
107.5961°
Arg perigee
93.6457°
Mean anomaly
266.5046°
Rev number
2,300

§ Raw data

STARLINK-374051 68809U 26089H   26261.84927785  .00010814  00000+0  33677-3 0  99952 68809  97.2852 107.5961 0002275  93.6457 266.5046 15.33446106 23002

JSON: /api/v1/satellites/68809 · /tle

For live sub-satellite position, see the globe view (requires WebGL).

§ Visibility from observer

Set your observer location to see the next 7 days of passes ≥ 10°. The values pass through the URL so the page stays shareable.

No JS? Fill the form by hand. The geolocation button needs JavaScript.